This demonstration page uses our WeatherBlox Daily Observations layout. Learn more.

Left ArrowRight Arrow

Hourly Observations for May 10, 2018

Temp ( °F °C ) Dew Point ( °F °C ) Humidity (%) Winds ( mph kmh ) Pressure ( in mb ) Visibility ( mi km ) Precip ( " mm )
12:35 am 00:35 Clear 58 14.5 46 7.6 64 64 E 3 6 29.91 1013 10 16.0934 0 0
12:55 am 00:55 Clear 56 13.2 46 7.5 69 69 ESE 3 6 29.91 1013 10 16.0934 0 0
1:35 am 01:35 Clear 57 14.1 46 7.5 65 65 NNE 6 9 29.91 1013 10 16.0934 0 0
1:55 am 01:55 Clear 58 14.3 46 7.7 65 65 NNE 8 13 29.91 1013 10 16.0934 0 0
2:15 am 02:15 Clear 54 12.4 45 7.4 72 72 NE 7 11 29.91 1013 10 16.0934 0 0
2:35 am 02:35 Clear 57 13.7 46 7.9 68 68 NE 10 17 29.91 1013 10 16.0934 0 0
2:55 am 02:55 Clear 58 14.5 47 8.4 67 67 ENE 9 15 29.91 1013 10 16.0934 0 0
3:15 am 03:15 Clear 57 13.7 47 8.4 71 71 NE 8 13 29.91 1013 10 16.0934 0 0
3:35 am 03:35 Clear 56 13.5 47 8.3 71 71 ENE 7 11 29.91 1013 10 16.0934 0 0
3:55 am 03:55 Clear 55 13 47 8.2 73 73 ENE 8 13 29.91 1013 10 16.0934 0 0
4:15 am 04:15 Clear 55 12.7 47 8.2 74 74 ENE 8 13 29.91 1013 10 16.0934 0 0
4:35 am 04:35 Clear 54 12.1 46 7.8 75 75 NE 7 11 29.91 1013 10 16.0934 0 0
4:55 am 04:55 Clear 52 11.1 46 7.7 80 80 NE 8 13 29.94 1014 10 16.0934 0 0
5:15 am 05:15 Clear 53 11.8 46 8 78 78 NE 3 6 29.97 1015 10 16.0934 0 0
5:35 am 05:35 Clear 53 11.9 46 7.9 77 77 Calm 29.97 1015 10 16.0934 0 0
5:55 am 05:55 Clear 52 11.1 46 7.6 79 79 Calm 29.97 1015 10 16.0934 0 0
6:15 am 06:15 Clear 52 10.9 46 8 82 82 Calm 29.97 1015 10 16.0934 0 0
6:35 am 06:35 Sunny 51 10.8 46 7.9 82 82 Calm 29.97 1015 10 16.0934 0 0
6:55 am 06:55 Sunny 51 10.5 46 7.8 84 84 ENE 3 6 29.94 1014 10 16.0934 0 0
7:15 am 07:15 Sunny 52 11.2 47 8.1 81 81 ENE 3 6 29.97 1015 10 16.0934 0 0
7:35 am 07:35 Sunny 56 13.6 49 9.4 76 76 E 7 11 29.91 1013 10 16.0934 0 0
7:55 am 07:55 Sunny 58 14.5 49 9.2 71 71 E 10 17 29.91 1013 10 16.0934 0 0
8:15 am 08:15 Sunny 59 15.1 49 9.5 69 69 E 10 17 29.94 1014 10 16.0934 0 0
8:35 am 08:35 Sunny 61 16.1 50 9.8 66 66 E 9 15 29.91 1013 10 16.0934 0 0
8:55 am 08:55 Sunny 62 16.8 49 9.7 63 63 E 15 24 29.91 1013 10 16.0934 0 0
9:15 am 09:15 Sunny 65 18.1 50 10.1 60 60 E 14 22 29.88 1012 10 16.0934 0 0
9:35 am 09:35 Sunny 67 19.2 50 10 55 55 E 16 26 29.88 1012 10 16.0934 0 0
9:55 am 09:55 Sunny 68 20.2 50 10.2 53 53 ESE 16 26 29.85 1011 10 16.0934 0 0
10:15 am 10:15 Sunny 70 20.9 51 10.5 52 52 E 15 24 29.85 1011 10 16.0934 0 0
10:35 am 10:35 Sunny 72 22 51 10.6 48 48 ESE 13 20 29.85 1011 10 16.0934 0 0
10:55 am 10:55 Sunny 73 22.9 52 11 47 47 SE 14 22 29.83 1010 10 16.0934 0 0
11:15 am 11:15 Sunny 74 23.6 52 11.3 46 46 SSE 9 15 29.83 1010 10 16.0934 0 0
11:35 am 11:35 Sunny 75 24 53 11.5 46 46 SSE 9 15 29.83 1010 10 16.0934 0 0
11:55 am 11:55 Sunny 76 24.5 53 11.8 45 45 SSE 9 15 29.83 1010 10 16.0934 0 0
12:15 pm 12:15 Sunny 77 24.8 53 11.5 43 43 S 10 17 29.8 1009 10 16.0934 0 0
12:35 pm 12:35 Sunny 78 25.7 53 11.6 41 41 SE 12 19 29.8 1009 10 16.0934 0 0
12:55 pm 12:55 Sunny 79 25.9 55 12.7 44 44 SSE 10 17 29.77 1008 10 16.0934 0 0
1:15 pm 13:15 Sunny 79 26.3 55 12.6 43 43 S 12 19 29.77 1008 10 16.0934 0 0
1:35 pm 13:35 Sunny 80 26.7 56 13.3 44 44 S 14 22 29.74 1007 10 16.0934 0 0
1:55 pm 13:55 Sunny 80 26.6 55 13 43 43 SE 14 22 29.74 1007 10 16.0934 0 0
2:15 pm 14:15 Sunny 81 27.2 55 12.9 41 41 SE 10 17 29.74 1007 10 16.0934 0 0
2:35 pm 14:35 Sunny 82 27.6 55 12.9 40 40 SSE 14 22 29.71 1006 10 16.0934 0 0
2:55 pm 14:55 Sunny 82 27.6 55 12.9 40 40 SSE 15 24 29.71 1006 10 16.0934 0 0
3:15 pm 15:15 Sunny 82 27.8 55 13 40 40 SSE 14 22 29.68 1005 10 16.0934 0 0
3:35 pm 15:35 Sunny 83 28.5 55 12.9 38 38 SSE 14 22 29.68 1005 10 16.0934 0 0
3:55 pm 15:55 Sunny 83 28.3 55 12.9 39 39 SE 10 17 29.68 1005 10 16.0934 0 0
4:15 pm 16:15 Sunny 83 28.6 56 13.1 38 38 SSE 15 24 29.62 1003 10 16.0934 0 0
4:35 pm 16:35 Sunny 83 28.4 56 13.3 39 39 SE 12 19 29.62 1003 10 16.0934 0 0
4:55 pm 16:55 Sunny 83 28.4 56 13.5 40 40 SE 16 26 29.62 1003 10 16.0934 0 0
5:15 pm 17:15 Sunny 84 29 56 13.5 39 39 SSE 13 20 29.62 1003 10 16.0934 0 0
5:35 pm 17:35 Sunny 84 29.1 56 13.4 38 38 S 20 31 29.62 1003 10 16.0934 0 0
5:55 pm 17:55 Sunny 84 29.1 56 13.4 38 38 SE 20 31 29.62 1003 7 11.26538 0 0
6:15 pm 18:15 Sunny 84 28.8 56 13.3 39 39 SE 20 31 29.59 1002 10 16.0934 0 0
6:35 pm 18:35 Sunny 84 28.9 57 13.7 39 39 SE 21 33 29.59 1002 10 16.0934 0 0
6:55 pm 18:55 Sunny 83 28.4 56 13.6 40 40 SE 23 37 29.56 1001 10 16.0934 0 0
7:15 pm 19:15 Sunny 82 28 56 13.5 41 41 SE 22 35 29.56 1001 10 16.0934 0 0
7:35 pm 19:35 Sunny 82 27.5 56 13.5 42 42 SE 22 35 29.59 1002 10 16.0934 0 0
7:55 pm 19:55 Sunny 80 26.6 57 13.7 45 45 SE 20 31 29.59 1002 10 16.0934 0 0
8:15 pm 20:15 Sunny 79 26 57 14 48 48 SE 18 30 29.59 1002 10 16.0934 0 0
8:35 pm 20:35 Sunny 78 25.5 57 14 49 49 SE 15 24 29.59 1002 10 16.0934 0 0
8:55 pm 20:55 Clear 76 24.6 57 14 52 52 SE 14 22 29.59 1002 10 16.0934 0 0
9:15 pm 21:15 Clear 76 24.4 58 14.3 53 53 SE 14 22 29.59 1002 10 16.0934 0 0
9:35 pm 21:35 Clear 75 23.7 58 14.5 56 56 SE 13 20 29.62 1003 10 16.0934 0 0
9:55 pm 21:55 Clear 73 23 58 14.5 59 59 SE 13 20 29.62 1003 10 16.0934 0 0
10:15 pm 22:15 Clear 73 22.8 59 15.1 62 62 SE 14 22 29.59 1002 10 16.0934 0 0
10:35 pm 22:35 Clear 73 22.9 60 15.3 62 62 ESE 12 19 29.62 1003 10 16.0934 0 0
10:55 pm 22:55 Partly Cloudy with Nearby Thunderstorms 73 22.5 59 15.1 63 63 NE 6 9 29.65 1004 10 16.0934 0 0
11:15 pm 23:15 Mostly Cloudy 72 22 59 15 65 65 E 12 19 29.65 1004 10 16.0934 0 0
11:35 pm 23:35 Partly Cloudy 71 21.9 59 15 65 65 E 10 17 29.65 1004 10 16.0934 0 0
11:55 pm 23:55 Partly Cloudy with Nearby Thunderstorms 72 22.1 59 15.2 65 65 NNW 23 37 29.68 1005 10 16.0934 0 0

Powered by AerisWeather